Effective Sunday, March 17, 2024, the National Weather Service National Data Buoy Center will discontinue its Dial-A-Buoy Interactive Voice Response system. For more information, see Service Change Notice 24-06 (PDF).

Station LTBV3 - 9751401 - Lime Tree Bay, St. Croix, VI Image indicating link to RSS feed of recent meteorological observations for station LTBV3


Conditions at LTBV3 as of
(11:18 am AST)
1518 GMT on 02/24/2024:
     

Click on the graph icon in the table below to see a time series plot of the last five days of that observation.

5-day plot - Wind Direction Wind Direction (WDIR): E ( 100 deg true )
5-day plot - Wind Speed Wind Speed (WSPD): 8.0 kts
5-day plot - Wind Gust Wind Gust (GST): 12.0 kts
5-day plot - Atmospheric Pressure Atmospheric Pressure (PRES):30.02 in
5-day plot - Air Temperature Air Temperature (ATMP): 82.2 °F
5-day plot - Water Temperature Water Temperature (WTMP): 81.3 °F
5-day plot - Wind Speed at 10 Meters Wind Speed at 10 meters (WSPD10M): 9.7 kts
5-day plot - Wind Speed at 20 Meters Wind Speed at 20 meters (WSPD20M): 9.7 kts
5-day plot -  Wind Speed, Wind Gust and Atmospheric Pressure Combined plot of Wind Speed, Gust, and Air Pressure
NOS Water Level Observation Network Water Level
Previous observations
TIME
(AST)
5-day plot - Wind Direction
WDIR
 
5-day plot - Wind Speed
WSPD
kts
5-day plot - Wind Gust
GST
kts
5-day plot - Wave Height
WVHT
ft
5-day plot - Dominant Wave Period
DPD
sec
5-day plot - Average Wave Period
APD
sec
5-day plot - Mean Wave Direction
MWD
 
5-day plot - Atmospheric Pressure
PRES
in
5-day plot - Pressure Tendency
PTDY
in
5-day plot - Air Temperature
ATMP
°F
5-day plot - Water Temperature
WTMP
°F
5-day plot - Dew Point
DEWP
°F
5-day plot - Salinity
SAL
psu
5-day plot - Visibility
VIS
nmi
5-day plot - Tide (above MLLW)
TIDE
ft
2024-02-24 11:12 amESE 7.0 12.0----30.02- 82.6 81.3----
2024-02-24 11:06 amESE 8.0 13.0----30.03- 82.6 81.3----
2024-02-24 11:00 am E 7.0 11.1------------
2024-02-24 10:54 am E 6.0 8.9------------
2024-02-24 10:48 am E 6.0 12.0----30.03-- 81.3----
2024-02-24 10:42 am E 4.1 11.1----30.03-- 81.3----
2024-02-24 10:36 am E 6.0 11.1----30.03-- 81.3----
2024-02-24 10:30 am E 8.0 12.0----30.03- 82.0 81.3----
2024-02-24 10:24 am E 5.1 12.0----30.03- 83.1 81.3----
2024-02-24 10:18 am E 6.0 12.0----30.03- 82.6 81.3----
2024-02-24 10:12 am E 7.0 12.0----30.04- 82.6 81.3----
2024-02-24 10:06 am E 8.0 13.0----30.04- 82.4 81.3----
2024-02-24 10:00 am E 8.9 13.0----30.04+0.06 82.0 81.3----
2024-02-24 09:54 am E 8.0 14.0----30.03- 82.4 81.3----
2024-02-24 09:48 am E 6.0 9.9------- 81.3----
2024-02-24 09:42 am E 7.0 9.9------- 81.3----
2024-02-24 09:36 am E 8.9 13.0------- 81.3----
2024-02-24 09:30 am E 5.1 9.9----30.03-------
2024-02-24 09:24 am E 8.9 14.0----30.03-------
2024-02-24 09:18 am E 7.0 11.1----30.03-------
2024-02-24 09:12 am E 8.0 12.0----30.03-------
2024-02-24 09:06 am E 7.0 12.0----30.02-------
2024-02-24 09:00 am--------- 81.3 81.1----
2024-02-24 08:54 am--------- 81.1 81.1----
2024-02-24 08:48 am E 8.9 13.0----30.02- 81.0 81.3----
2024-02-24 08:42 am E 8.9 12.0----30.01- 81.0 81.3----
2024-02-24 08:36 amESE 7.0 12.0----30.01- 81.0 81.3----
2024-02-24 08:30 amESE 8.0 13.0----30.01-------
2024-02-24 08:24 am E 8.9 13.0----30.01-------
2024-02-24 08:18 am E 9.9 12.0----30.01-- 81.3----
2024-02-24 08:12 am E 7.0 14.0----30.00-- 81.3----
2024-02-24 08:06 am E 8.0 12.0----30.00-- 81.3----
2024-02-24 08:00 am E 9.9 14.0----30.00+0.06 79.7 81.3----
2024-02-24 07:54 am E 11.1 13.0----30.00- 79.7 81.3----
2024-02-24 07:48 am E 8.9 14.0----29.99-- 81.3----
2024-02-24 07:42 amENE 4.1 7.0----29.99-- 81.3----
2024-02-24 07:36 amENE 5.1 8.0----29.99-- 81.3----
2024-02-24 07:30 amENE 6.0 8.9----29.98- 78.6 81.3----
2024-02-24 07:24 amENE 5.1 8.0----29.98- 78.3 81.3----
2024-02-24 07:18 amENE 6.0 8.0----29.98- 77.9 81.3----
2024-02-24 07:12 amENE 5.1 8.0----29.98- 77.4 81.3----
2024-02-24 07:06 amENE 5.1 7.0----29.98- 77.2 81.3----
2024-02-24 07:00 am-------29.97-- 81.3----
2024-02-24 06:54 am-------29.97-- 81.3----
2024-02-24 06:48 am E 6.0 8.0----29.97- 76.6 81.3----
2024-02-24 06:42 am E 5.1 11.1----29.97- 77.0 81.3----
2024-02-24 06:36 amENE 6.0 8.9----29.96- 77.0 81.3----
2024-02-24 06:30 amENE 6.0 8.9----29.96-- 81.3----
2024-02-24 06:24 amENE 6.0 8.9----29.96-- 81.3----
2024-02-24 06:18 am-------29.96- 77.5 81.3----
2024-02-24 06:12 am-------29.96- 77.5 81.3----
2024-02-24 06:06 am-------29.95- 77.5 81.3----
2024-02-24 06:00 am-------29.95+0.00- 81.3----
2024-02-24 05:54 am-------29.95-- 81.3----
2024-02-24 05:48 am E 7.0 9.9----29.94-- 81.3----
2024-02-24 05:42 amENE 5.1 8.9----29.94-- 81.3----
2024-02-24 05:36 amENE 5.1 8.9----29.94-- 81.3----
2024-02-24 05:30 amENE 7.0 9.9------------
2024-02-24 05:24 amENE 6.0 9.9------------
2024-02-24 05:18 amENE 7.0 9.9----29.94- 77.0 81.3----
2024-02-24 05:12 amENE 5.1 9.9----29.94- 77.0 81.3----
2024-02-24 05:06 amENE 7.0 9.9----29.94- 77.0 81.3----
2024-02-24 05:00 amENE 6.0 8.9----29.94-0.03 76.8 81.3----
2024-02-24 04:54 amENE 5.1 8.0----29.94- 76.8 81.3----
2024-02-24 04:48 amENE 5.1 8.9----29.94- 76.8 81.3----
2024-02-24 04:42 amENE 2.9 8.0----29.94- 77.0 81.3----
2024-02-24 04:36 amENE 5.1 8.0----29.94- 77.0 81.3----
2024-02-24 04:30 amENE 5.1 8.9----29.94-- 81.3----
2024-02-24 04:24 amENE 4.1 8.0----29.94-- 81.3----
2024-02-24 04:18 amENE 6.0 8.9----29.94-- 81.3----
2024-02-24 04:12 amENE 2.9 8.9----29.94-- 81.3----
2024-02-24 04:06 amENE 5.1 8.0----29.94-- 81.3----
2024-02-24 04:00 amENE 5.1 7.0------- 81.3----
2024-02-24 03:54 amENE 4.1 8.9------- 81.3----
2024-02-24 03:48 amENE 4.1 8.0----29.94-- 81.3----
2024-02-24 03:42 amENE 5.1 8.0----29.94-- 81.3----
2024-02-24 03:36 amENE 6.0 9.9----29.94-- 81.3----
2024-02-24 03:30 amENE 6.0 11.1----29.94-------
2024-02-24 03:24 amENE 6.0 8.0----29.94-------
2024-02-24 03:18 am NE 5.1 9.9----29.95- 77.0 81.3----
2024-02-24 03:12 amENE 5.1 8.0----29.95- 77.0 81.3----
2024-02-24 03:06 amENE 6.0 8.0----29.95- 76.8 81.3----
2024-02-24 03:00 am-------29.95-0.04 77.0 81.3----
2024-02-24 02:54 am-------29.95- 76.8 81.3----
2024-02-24 02:48 am NE 5.1 8.9----29.95-- 81.3----
2024-02-24 02:42 amENE 6.0 9.9----29.96-- 81.3----
2024-02-24 02:36 amENE 6.0 11.1----29.96-- 81.5----
2024-02-24 02:30 am-------29.96- 76.6 81.5----
2024-02-24 02:24 am-------29.96- 76.6 81.5----
2024-02-24 02:18 amENE 4.1 8.9----29.96-- 81.5----
2024-02-24 02:12 am E 6.0 8.9----29.96-- 81.5----
2024-02-24 02:06 amENE 5.1 8.9----29.96-- 81.5----
2024-02-24 02:00 amENE 6.0 9.9----29.97-0.04 77.0 81.5----
2024-02-24 01:54 amENE 5.1 8.9----29.97- 77.0 81.5----
2024-02-24 01:48 amENE 6.0 8.9----29.97-- 81.5----
2024-02-24 01:42 amENE 5.1 8.0----29.97-- 81.5----
2024-02-24 01:36 amENE 5.1 8.0----29.98-- 81.5----
2024-02-24 01:30 am NE 4.1 8.0----29.98- 77.0 81.5----
2024-02-24 01:24 amENE 5.1 8.0----29.98- 77.2 81.5----
2024-02-24 01:18 am NE 4.1 8.9----29.98- 77.0 81.5----
2024-02-24 01:12 amENE 4.1 8.9----29.98- 77.0 81.5----
2024-02-24 01:06 amENE 7.0 8.9----29.98- 77.0 81.5----
2024-02-24 01:00 am NE 4.1 8.9----29.98-0.02- 81.5----
2024-02-24 12:54 amENE 5.1 9.9----29.98-- 81.5----
2024-02-24 12:48 amENE 5.1 8.0----29.98- 77.0 81.5----
2024-02-24 12:42 amENE 5.1 8.0----29.99- 77.0 81.5----
2024-02-24 12:36 amENE 5.1 8.9----29.99- 77.0 81.5----
2024-02-24 12:30 amENE 4.1 8.0----29.99- 76.8 81.5----
2024-02-24 12:24 amENE 5.1 8.0----29.99- 76.8 81.5----
2024-02-24 12:18 amENE 5.1 8.0----29.99- 77.0 81.5----
2024-02-24 12:12 amENE 5.1 8.9----29.99- 77.0 81.5----
2024-02-24 12:06 amENE 6.0 9.9----29.99- 77.0 81.5----
2024-02-24 12:00 amENE 5.1 8.9----29.99+0.00 76.8-----
2024-02-23 11:54 pmENE 5.1 8.9----30.00- 76.8-----
2024-02-23 11:48 pmENE 6.0 8.9----30.00-- 81.5----
2024-02-23 11:42 pmENE 5.1 8.0----30.00-- 81.5----
2024-02-23 11:36 pmENE 4.1 8.0----30.00-- 81.5----
2024-02-23 11:30 pmENE 5.1 8.9----30.00- 76.8 81.5----
2024-02-23 11:24 pmENE 6.0 8.0----30.00- 76.8 81.5----
2024-02-23 11:18 pmENE 5.1 8.9----30.00- 77.0 81.5----
2024-02-23 11:12 pmENE 6.0 8.9----30.00- 76.8 81.5----
2024-02-23 11:06 pmENE 7.0 8.9----30.00- 76.8 81.5----
2024-02-23 11:00 pmENE 7.0 9.9----30.00+0.02 77.0 81.5----
2024-02-23 10:54 pmENE 8.0 9.9----30.01- 77.0 81.5----
2024-02-23 10:48 pmENE 5.1 8.9----30.01- 77.0 81.5----
2024-02-23 10:42 pmENE 6.0 8.9----30.01- 77.0 81.5----
2024-02-23 10:36 pmENE 4.1 8.9----30.01- 77.2 81.5----
2024-02-23 10:30 pmENE 5.1 9.9----30.01- 77.2 81.5----
2024-02-23 10:24 pmENE 5.1 8.9----30.01- 77.0 81.5----
2024-02-23 10:12 pmENE 6.0 11.1----30.01- 77.0 81.5----
2024-02-23 10:06 pmENE 5.1 9.9----30.01- 77.0 81.5----
2024-02-23 10:00 pmENE 7.0 9.9----30.00+0.04 77.0 81.5----
2024-02-23 09:36 pmENE 6.0 9.9----30.00- 77.0 81.5----
2024-02-23 09:30 pmENE 6.0 8.9----30.00-------
2024-02-23 09:24 pmENE 6.0 11.1----30.00-------
2024-02-23 09:18 pmENE 6.0 9.9----30.00-- 81.5----
2024-02-23 09:12 pmENE 5.1 9.9----30.00-- 81.5----
2024-02-23 09:06 pmENE 5.1 8.9----30.00-- 81.5----
2024-02-23 09:00 pmENE 7.0 11.1----30.00+0.05- 81.5----
2024-02-23 08:54 pmENE 5.1 8.0----29.99-- 81.5----
2024-02-23 08:48 pmENE 6.0 8.9----29.99-- 81.5----
2024-02-23 08:42 pmENE 5.1 9.9----29.99-- 81.7----
2024-02-23 08:36 pmENE 6.0 8.9----29.99-- 81.7----
2024-02-23 08:30 pmENE 5.1 8.0----29.99-- 81.7----
2024-02-23 08:24 pmENE 5.1 8.9----29.99-- 81.7----
2024-02-23 08:18 pmENE 5.1 9.9----29.98-- 81.7----
2024-02-23 08:12 pmENE 6.0 8.9----29.98-- 81.7----
2024-02-23 08:06 pmENE 5.1 8.0----29.98-- 81.7----
2024-02-23 08:00 pmENE 5.1 8.9----29.98+0.04------
2024-02-23 07:54 pmENE 5.1 8.0----29.98-------
2024-02-23 07:48 pm E 5.1 8.9----29.98- 77.0 81.7----
2024-02-23 07:42 pm E 4.1 7.0----29.97- 76.8 81.7----
2024-02-23 07:36 pm E 5.1 8.0----29.97- 77.2 81.7----
2024-02-23 07:30 pmENE 5.1 8.0----29.97- 77.2 81.7----
2024-02-23 07:24 pmENE 4.1 8.0----29.97- 77.2 81.7----
2024-02-23 07:18 pm E 5.1 8.9----29.96-- 81.7----
2024-02-23 07:12 pmENE 5.1 8.0----29.96-- 81.7----
2024-02-23 07:06 pmENE 6.0 8.9----29.96-- 81.7----
2024-02-23 07:00 pm E 4.1 8.9----29.96+0.03 77.4 81.7----
2024-02-23 06:54 pmENE 5.1 8.9----29.96- 77.5 81.7----
2024-02-23 06:48 pmENE 5.1 8.9----29.96- 77.5 81.7----
2024-02-23 06:42 pm E 4.1 8.0----29.96- 77.5 81.7----
2024-02-23 06:36 pmENE 4.1 8.0----29.96- 77.7 81.7----
2024-02-23 06:30 pmENE 5.1 8.9----29.96- 77.9 81.7----
2024-02-23 06:24 pmENE 5.1 8.0----29.96- 78.1 81.7----
2024-02-23 06:18 pmENE 6.0 8.9----29.95- 78.4 81.7----
2024-02-23 06:12 pm E 5.1 9.9----29.95- 78.8 81.7----
2024-02-23 06:06 pmENE 6.0 9.9----29.95- 79.2 81.7----
2024-02-23 06:00 pm E 6.0 11.1----29.95+0.01 79.3 81.7----
2024-02-23 05:54 pmENE 6.0 9.9----29.95- 79.7 81.9----
2024-02-23 05:48 pmENE 6.0 9.9----29.95- 80.1 81.9----
2024-02-23 05:42 pm E 8.0 11.1----29.95- 80.1 81.9----
2024-02-23 05:36 pmENE 7.0 12.0----29.95- 80.4 81.9----
2024-02-23 05:30 pm E 5.1 8.0----29.95- 81.5 81.9----
2024-02-23 05:24 pm NE 7.0 8.9----29.94- 81.3 81.9----
2024-02-23 05:18 pmENE 6.0 11.1----29.94- 80.8 81.9----
2024-02-23 05:12 pmENE 8.0 12.0----29.94- 80.8 81.9----
2024-02-23 05:06 pm E 7.0 9.9----29.94- 81.1 81.9----
2024-02-23 05:00 pmENE 7.0 12.0----29.94-0.01 81.3 81.9----
2024-02-23 04:54 pmENE 8.9 15.0----29.94- 80.8 81.9----
2024-02-23 04:48 pmENE 8.9 14.0----29.94- 81.0 81.9----
2024-02-23 04:42 pmENE 7.0 12.0----29.94- 81.1 81.9----
2024-02-23 04:36 pmENE 7.0 12.0----29.94- 81.5 81.9----
2024-02-23 04:30 pm E 8.0 12.0----29.93- 81.3 81.9----
2024-02-23 04:24 pmENE 6.0 9.9----29.93- 82.8 81.9----
2024-02-23 04:18 pmENE 7.0 11.1----29.93- 82.2 81.9----
2024-02-23 04:12 pm E 8.0 13.0----29.93- 81.9 81.9----
2024-02-23 04:06 pm NE 6.0 11.1----29.93- 83.1 81.9----
2024-02-23 04:00 pmENE 4.1 11.1----29.93-0.05 82.8 81.9----
2024-02-23 03:54 pm E 7.0 12.0----29.93- 82.0 81.9----
2024-02-23 03:48 pmENE 5.1 8.9----29.93- 82.8 81.9----
2024-02-23 03:42 pm NE 5.1 12.0----29.93- 83.7 81.9----
2024-02-23 03:36 pm NE 6.0 11.1----29.93- 83.5 81.9----
2024-02-23 03:30 pm NE 6.0 12.0----29.93- 83.7 81.9----
2024-02-23 03:24 pmNNE 5.1 11.1----29.93- 84.4 81.7----
2024-02-23 03:18 pmNNE 7.0 14.0----29.93- 83.8 81.7----
2024-02-23 03:12 pm NE 8.0 12.0----29.93- 83.5 81.7----
2024-02-23 03:06 pm NE 5.1 12.0----29.93- 84.4 81.7----
2024-02-23 03:00 pmENE 6.0 9.9----29.93-0.06 83.5 81.7----
2024-02-23 02:54 pm NE 8.0 13.0----29.94- 83.8 81.7----
2024-02-23 02:48 pmNNE 6.0 12.0----29.94- 84.0 81.7----
2024-02-23 02:42 pmENE 7.0 14.0----29.94- 82.8 81.9----
2024-02-23 02:36 pm NE 6.0 13.0----29.94- 84.2 81.9----
2024-02-23 02:30 pm NE 8.0 14.0----29.94- 83.1 81.9----
2024-02-23 02:24 pmNNE 7.0 13.0----29.95- 84.6 81.9----
2024-02-23 02:18 pm NE 5.1 13.0----29.95- 84.2 81.7----
2024-02-23 02:12 pm NE 7.0 13.0----29.95- 82.9 81.7----
2024-02-23 02:06 pm NE 9.9 15.0----29.95- 82.6 81.7----
2024-02-23 02:00 pm NE 9.9 15.0----29.95-0.06 83.3 81.7----
2024-02-23 01:54 pmENE 8.0 13.0----29.96- 82.6 81.7----
2024-02-23 01:48 pmENE 7.0 13.0----29.96- 82.0 81.7----
2024-02-23 01:42 pm NE 6.0 13.0----29.96- 83.3 81.7----
2024-02-23 01:36 pmNNE 6.0 12.0----29.96- 84.7 81.7----
2024-02-23 01:30 pm NE 8.0 12.0----29.96- 83.1 81.7----
2024-02-23 01:24 pmENE 8.0 12.0----29.97- 82.6 81.7----
2024-02-23 01:18 pmNNE 8.0 15.9----29.97- 84.4 81.7----
2024-02-23 01:12 pm N 7.0 11.1----29.97- 84.9 81.7----
2024-02-23 01:06 pmENE 7.0 14.0----29.98- 82.9 81.7----
2024-02-23 01:00 pmENE 6.0 11.1----29.98-0.04 83.5 81.7----
2024-02-23 12:54 pm NE 7.0 15.0----29.98- 83.8 81.7----
2024-02-23 12:48 pmENE 7.0 12.0----29.98- 83.1 81.7----
2024-02-23 12:42 pm N 7.0 12.0----29.98- 84.4 81.5----
2024-02-23 12:36 pmENE 8.9 13.0----29.98- 82.4 81.5----
2024-02-23 12:30 pmENE 6.0 11.1----29.98- 82.9 81.5----
2024-02-23 12:24 pm NE 8.9 15.0----29.99- 83.3 81.5----
2024-02-23 12:18 pm NE 11.1 15.0----29.99- 83.1 81.5----
2024-02-23 12:12 pm NE 7.0 13.0----29.99- 84.0 81.5----
2024-02-23 12:06 pmENE 7.0 11.1----29.99- 83.3 81.5----
2024-02-23 12:00 pmNNE 7.0 12.0----29.99+0.00 84.9 81.5----
2024-02-23 11:54 amNNE 6.0 9.9----30.00- 84.7 81.5----